Location: Goheenville
(40.9070°N, 79.3720°W)
Time: 09:02:17
(UTC-04:00)

Cosmos 1727 Rocket - Visible Passes

Search period start: 27 June 2016 00:00
Search period end: 07 July 2016 00:00
Orbit: 961 x 996 km, 82.9° (Epoch: 26 June)

Date Brightness Start Highest point End Pass type
(mag) Time Alt. Az. Time Alt. Az. Time Alt. Az.
27 Jun 6.2 01:00:39 10° NNE 01:04:17 16° ENE 01:07:52 10° ESE visible
27 Jun 3.9 02:44:14 10° N 02:50:28 78° W 02:52:37 43° S visible
28 Jun 5.4 01:25:48 10° NNE 01:31:07 29° ENE 01:33:51 21° ESE visible
28 Jun 4.5 03:10:53 10° NNW 03:16:41 42° W 03:18:33 34° SW visible
29 Jun 4.5 01:51:40 10° N 01:57:45 52° ENE 01:59:48 37° SE visible
29 Jun 5.3 03:38:02 10° NW 03:42:43 23° W 03:44:30 20° WSW visible
30 Jun 6.2 00:34:43 10° NE 00:37:51 14° ENE 00:40:58 10° E visible
30 Jun 3.9 02:17:55 10° N 02:24:10 86° W 02:25:47 53° S visible
30 Jun 5.9 04:06:39 10° WNW 04:08:33 11° WNW 04:10:28 10° W visible
01 Jul 5.5 00:59:38 10° NNE 01:04:45 26° ENE 01:07:04 21° ESE visible
01 Jul 4.4 02:44:30 10° NNW 02:50:24 47° W 02:51:46 40° SW visible
02 Jul 4.6 01:25:25 10° N 01:31:24 47° ENE 01:33:04 38° ESE visible
02 Jul 5.2 03:11:33 10° NNW 03:16:28 25° W 03:17:47 23° WSW visible
03 Jul 6.2 00:08:55 10° NE 00:11:25 12° ENE 00:13:56 10° E visible
03 Jul 3.9 01:51:36 10° N 01:57:51 86° E 01:59:05 60° SSE visible
03 Jul 5.8 03:39:41 10° NW 03:42:21 13° W 03:43:49 12° W visible
04 Jul 5.5 00:33:30 10° NNE 00:38:21 23° ENE 00:40:25 20° E visible
04 Jul 4.2 02:18:08 10° NNW 02:24:07 52° W 02:25:08 47° WSW visible
05 Jul 4.7 00:59:10 10° N 01:05:03 42° ENE 01:06:28 37° ESE visible
05 Jul 5.0 02:45:05 10° NNW 02:50:13 28° W 02:51:11 27° WSW visible
05 Jul 6.2 23:43:23 10° NE 23:45:00 11° ENE 23:46:37 10° ENE visible
06 Jul 3.9 01:25:18 10° N 01:31:32 78° E 01:32:32 63° SSE visible
06 Jul 5.8 03:12:54 10° NW 03:16:08 15° W 03:17:15 14° W visible
